Regional Weather Roundup
Issued by NWS

Home | Current Version | Previous Version | Graphics & Text | Print | Product List | Glossary On
Versions: 1 2 3 4 5 6 7 8 9 10 11 12 13 14 15 16 17 18 19 20 21 22 23 24 25 26 27 28 29 30 31 32 33 34 35 36 37 38 39 40 41 42 43 44 45 46 47 48 49 50
000
ASUS44 KMEG 261010
RWRTN
TENNESSEE HOURLY STATE WEATHER ROUNDUP
NATIONAL WEATHER SERVICE MEMPHIS TN
500 AM CDT TUE SEP 26 2017

TNZ002-004-019-021-049-052-054-088>092-261100-
WEST TENNESSEE

CITY           SKY/WX    TMP DP  RH WIND       PRES   REMARKS
MEMPHIS INTL   CLEAR     74  67  78 CALM      29.95S
NWS MEMPHIS      N/A     67 N/A N/A MISG        N/A
JACKSON        CLEAR     64  64 100 CALM      29.97S FOG
DYERSBURG      CLEAR     67  67 100 CALM      29.97S
SOMERVILLE     CLEAR     66  64  94 CALM      29.95S
COVINGTON      FOG       64  63  94 CALM      29.96S VSB 1/4
BOLIVAR        CLEAR     64  63  94 CALM      29.96S FOG
PARIS          CLOUDY    64  64 100 CALM      29.96S
HUNTINGDON     MOCLDY    66  66 100 CALM      29.96S
LEXINGTON      FOG       64  64 100 CALM      29.97S VSB 0
SELMER         CLEAR     66  64  94 CALM      29.96S
SAVANNAH       MOCLDY    64  63  94 CALM      29.96S
$$

TNZ008-025-027-028-033-062-065-066-261100-
NORTH MIDDLE TENNESSEE

CITY           SKY/WX    TMP DP  RH WIND       PRES   REMARKS
NASHVILLE      CLEAR     68  66  93 CALM      29.98R
PORTLAND       CLEAR     63  63 100 CALM      29.98S
CLARKSVILLE    PTCLDY    65  62  90 CALM      29.97S FOG
SMYRNA           N/A    N/A N/A N/A MISG        N/A
COOKEVILLE     FOG       55  55 100 CALM      30.00R VSB 1
GALLATIN       CLEAR     64  63  94 CALM      30.00S
CROSSVILLE     CLEAR     59  57  93 CALM      30.05R
$$

TNZ061-075-076-078-094-096-097-261100-
SOUTH MIDDLE TENNESSEE

CITY           SKY/WX    TMP DP  RH WIND       PRES   REMARKS
FAYETTEVILLE   CLEAR     64  64 100 CALM      29.98S FOG
TULLAHOMA      CLEAR     61  61 100 CALM      30.01R
WINCHESTER     CLEAR     61  61 100 CALM      30.00S
MCMINNVILLE      N/A     61  61 100 CALM      30.00S
COLUMBIA       CLOUDY    64 N/A N/A CALM      29.96S HAZE
SHELBYVILLE    CLEAR     64  64 100 E5        29.98S FOG
$$

TNZ017-018-042-046-047-261100-
NORTHEAST TENNESSEE

CITY           SKY/WX    TMP DP  RH WIND       PRES   REMARKS
TRI CITIES     PTCLDY    58  58 100 CALM      30.04S
ELIZABETHTON   MOCLDY    59  59 100 CALM      30.05R
$$

TNZ012-013-036-069-073-074-261100-
CENTRAL EAST TENNESSEE

CITY           SKY/WX    TMP DP  RH WIND       PRES   REMARKS
KNOXVILLE      PTCLDY    62  59  90 CALM      30.00S
OAK RIDGE      CLEAR     63  61  93 CALM      30.03R
DOWNTOWN KNOXV FOG       61  61 100 CALM      30.00S VSB 3/4
GATLINBURG     CLEAR     57  57 100 CALM      30.01R
MORRISTOWN     CLEAR     64  59  82 CALM      30.01R
JACKSBORO      CLEAR     59  59 100 CALM      30.05S FOG
$$

TNZ083-085-099-261100-
SOUTHEAST TENNESSEE

CITY           SKY/WX    TMP DP  RH WIND       PRES   REMARKS
CHATTANOOGA    CLEAR     64  62  93 CALM      30.00R
DAYTON         SUNNY     61  61 100 CALM      29.99S
$$

SKY/WX REPORTED AS FAIR MEANS FEW OR NO CLOUDS BELOW
12 THOUSAND FEET.





USA.gov is the U.S. government's official web portal to all federal, state and local government web resources and services.